Stations météo

réclame
Mon MeteoGroup
Marseille/Marignane, France (7650): Température de l'air & dewpoint: 18.05.2019 05:00:00 - 24.05.2019 05:00:00 (CEST)Marseille/Marignane, France (7650): Température de l'air 5cm: 18.05.2019 05:00:00 - 24.05.2019 05:00:00 (CEST)Marseille/Marignane, France (7650): Température de l'air -20cm & Température de l'air -100cm: 18.05.2019 05:00:00 - 24.05.2019 05:00:00 (CEST)Marseille/Marignane, France (7650): Vitesse du vent & gusts: 18.05.2019 05:00:00 - 24.05.2019 05:00:00 (CEST)Marseille/Marignane, France (7650): Direction du vent: 18.05.2019 05:00:00 - 24.05.2019 05:00:00 (CEST)Marseille/Marignane, France (7650): reduced air pressure: 18.05.2019 05:00:00 - 24.05.2019 05:00:00 (CEST)Marseille/Marignane, France (7650): visibility: 18.05.2019 05:00:00 - 24.05.2019 05:00:00 (CEST)Marseille/Marignane, France (7650): Ensoleillement: 18.05.2019 05:00:00 - 24.05.2019 05:00:00 (CEST)Marseille/Marignane, France (7650): Quantités de précipitations: 18.05.2019 05:00:00 - 24.05.2019 05:00:00 (CEST)
Date & Time tt [°C] td [°C] tt 5cm [°C] tt -20cm [°C] tt -100cm [°C] ff [km/h] ff [knt] fx [km/h] fx [knt] dd ppp [hPa] vv [km] sd [min] rr [mm]
24.05.2019 05:00:00 13,6 9,0 11,6 20,5 15,9 8 4 10 5 SSE 1013,9 36 0 0,0
24.05.2019 04:00:00 13,9 9,5 11,0 20,8 15,9 7 4 11 6 SSE 1014,2 33 0 0,0
24.05.2019 03:00:00 14,2 9,4 11,0 21,2 15,9 8 5 11 6 SE 1014,6 29 0 0,0
24.05.2019 02:00:00 14,2 9,8 11,2 21,6 15,9 8 5 11 6 ESE 1015,2 21 0 0,0
24.05.2019 01:00:00 14,4 10,6 11,4 22,0 15,8 9 5 13 7 SE 1015,6 23 0 0,0
24.05.2019 00:00:00 14,5 11,3 12,9 22,4 15,9 11 6 13 7 SE 1015,9 22 0 0,0
23.05.2019 23:00:00 16,7 11,6 12,7 22,9 15,9 5 3 9 5 SSE 1016,1 25 0 0,0
23.05.2019 22:00:00 16,4 12,0 13,7 23,2 15,8 8 4 15 8 S 1016,0 19 0 0,0
23.05.2019 21:00:00 17,7 12,4 16,7 23,5 15,8 11 6 18 10 S 1015,6 24 8 0,0
23.05.2019 20:00:00 20,1 12,1 23,0 23,7 15,8 13 7 25 13 S 1015,3 36 60 0,0
23.05.2019 19:00:00 20,7 12,9 25,5 23,7 15,8 20 11 26 14 S 1015,0 22 60 0,0
23.05.2019 18:00:00 21,9 12,4 27,5 23,4 15,8 18 10 29 16 S 1015,2 18 60 0,0
23.05.2019 17:00:00 22,3 12,8 28,9 23,0 15,8 22 12 40 21 SSW 1015,3 18 60 0,0
23.05.2019 16:00:00 22,4 12,9 29,3 22,3 15,8 22 12 34 18 SSW 1015,7 19 60 0,0
23.05.2019 15:00:00 22,3 12,5 29,7 21,5 15,8 15 8 29 16 SSW 1016,4 20 60 0,0
23.05.2019 14:00:00 22,6 12,5 29,7 20,6 15,8 16 9 38 20 SSW 1016,7 20 60 0,0
23.05.2019 13:00:00 22,0 12,0 28,6 19,9 15,8 11 6 29 16 W 1017,1 20 60 0,0
23.05.2019 12:00:00 20,7 11,3 27,3 19,1 15,8 11 6 16 9 W 1017,5 27 60 0,0
23.05.2019 11:00:00 19,6 11,4 25,1 18,7 15,7 9 5 13 7 W 1017,7 30 60 0,0
23.05.2019 10:00:00 18,6 11,7 24,6 18,5 15,7 9 5 13 7 W 1017,6 20 60 0,0
23.05.2019 09:00:00 18,2 10,1 19,8 18,6 15,8 3 2 14 8 WSW 1017,1 20 60 0,0
23.05.2019 08:00:00 15,8 10,5 15,3 18,8 15,8 10 5 20 11 ESE 1016,8 20 60 0,0
23.05.2019 07:00:00 13,0 10,0 8,8 19,1 15,8 7 4 13 7 E 1016,4 20 29 0,0
23.05.2019 06:00:00 10,9 8,6 8,9 19,5 15,8 9 5 12 7 SE 1016,0 27 0 0,0
23.05.2019 05:00:00 11,6 8,6 8,8 19,8 15,8 6 4 10 6 SSE 1015,9 32 0 0,0
23.05.2019 04:00:00 12,3 9,1 10,0 20,2 15,7 8 5 12 7 SE 1016,0 38 0 0,0
23.05.2019 03:00:00 15,3 10,9 11,6 20,6 15,8 9 5 16 9 NNW 1015,9 46 0 0,0
23.05.2019 02:00:00 16,0 11,0 13,0 20,9 15,8 7 4 12 7 WSW 1015,8 55 0 0,0
23.05.2019 01:00:00 16,5 11,4 14,0 21,3 15,7 7 4 19 10 W 1015,9 50 0 0,0
23.05.2019 00:00:00 17,3 11,6 14,7 21,6 15,7 15 8 30 16 W 1015,8 51 0 0,0
22.05.2019 23:00:00 18,2 12,0 17,1 22,0 15,8 23 13 31 17 WSW 1016,0 39 0 0,0
22.05.2019 22:00:00 18,6 12,6 17,9 22,3 15,7 21 11 34 19 WSW 1015,5 42 0 0,0
22.05.2019 21:00:00 20,2 12,4 19,3 22,5 15,7 20 11 36 20 WSW 1015,1 58 39 0,0
22.05.2019 20:00:00 24,8 8,3 26,4 22,6 15,7 18 10 31 17 NW 1014,4 34 60 0,0
22.05.2019 19:00:00 24,2 12,5 28,3 22,5 15,7 12 6 23 13 W 1014,2 28 60 0,0
22.05.2019 18:00:00 24,3 10,9 29,8 22,3 15,7 16 9 28 15 S 1014,4 20 60 0,0
22.05.2019 17:00:00 23,5 10,2 30,3 21,8 15,7 18 10 32 17 S 1014,8 20 60 0,0
22.05.2019 16:00:00 23,1 11,8 30,3 21,2 15,7 19 10 31 17 S 1015,2 20 60 0,0
22.05.2019 15:00:00 23,3 11,4 30,3 20,5 15,7 23 12 35 19 S 1015,3 21 60 0,0
22.05.2019 14:00:00 23,0 10,4 30,5 19,6 15,7 19 10 27 15 SSW 1015,5 21 60 0,0
22.05.2019 13:00:00 22,7 11,4 29,3 18,7 15,7 10 5 18 10 W 1015,8 19 60 0,0
22.05.2019 12:00:00 20,9 11,5 26,7 18,1 15,7 11 6 20 11 WSW 1015,9 18 60 0,0
22.05.2019 11:00:00 19,9 11,6 26,2 17,6 15,7 14 8 19 10 WSW 1015,6 16 60 0,0
22.05.2019 10:00:00 18,5 11,3 23,1 17,4 15,7 7 4 16 9 W 1015,4 12 60 0,0
22.05.2019 09:00:00 17,2 11,5 19,0 17,4 15,7 3 2 14 8 N 1015,4 21 60 0,0
22.05.2019 08:00:00 15,4 10,8 13,7 17,6 15,7 3 2 9 5 SSE 1015,1 18 52 0,0
22.05.2019 07:00:00 13,1 10,3 9,7 17,9 15,7 8 4 12 7 SE 1014,7 26 26 0,0
22.05.2019 06:00:00 12,5 9,5 9,8 18,2 15,7 8 4 12 6 SE 1014,2 27 0 0,0
22.05.2019 05:00:00 12,8 9,2 9,4 18,4 15,7 7 4 15 8 NNW 1013,7 33 0 0,0
22.05.2019 04:00:00 15,5 10,3 12,8 18,7 15,7 13 7 17 9 NW 1013,6 42 0 0,0
22.05.2019 03:00:00 16,6 10,2 13,9 19,0 15,7 9 5 16 9 NNW 1013,7 45 0 0,0
22.05.2019 02:00:00 17,5 9,9 15,7 19,3 15,7 14 7 23 12 NW 1013,5 48 0 0,0
22.05.2019 01:00:00 17,4 10,5 16,3 19,6 15,7 19 10 33 18 NW 1013,5 48 0 0,0
22.05.2019 00:00:00 18,2 10,1 17,2 19,9 15,7 21 12 35 19 WNW 1013,4 45 0 0,0
21.05.2019 23:00:00 19,1 9,6 18,3 20,1 15,7 27 15 42 23 WNW 1013,1 46 0 0,0
21.05.2019 22:00:00 20,0 8,6 19,1 20,4 15,7 29 16 46 25 NW 1012,4 47 0 0,0
21.05.2019 21:00:00 20,8 8,1 20,0 20,6 15,7 27 14 51 27 NW 1011,9 57 38 0,0
21.05.2019 20:00:00 22,7 8,0 23,5 20,8 15,7 35 19 55 30 NW 1011,5 14 60 0,0
21.05.2019 19:00:00 23,7 7,7 26,1 20,7 15,7 40 21 58 31 WNW 1011,0 12 60 0,0
21.05.2019 18:00:00 24,1 8,5 25,8 20,4 15,7 38 21 58 31 NW 1011,1 10 53 0,0
21.05.2019 17:00:00 24,2 8,6 27,2 20,0 15,7 38 21 72 39 NNW 1011,1 8 55 0,0
21.05.2019 16:00:00 24,0 9,9 27,9 19,4 15,7 44 24 63 34 WNW 1011,3 8 58 0,0
21.05.2019 15:00:00 24,5 9,6 25,9 18,8 15,7 42 23 70 38 NW 1011,2 7 45 0,0
21.05.2019 14:00:00 23,9 9,5 27,9 18,1 15,7 45 25 65 35 NW 1011,1 8 58 0,0
21.05.2019 13:00:00 23,1 9,8 27,0 17,5 15,7 42 23 71 39 NW 1011,1 8 58 0,0
21.05.2019 12:00:00 22,3 10,4 25,6 17,1 15,7 42 23 66 36 NW 1011,2 9 60 0,0
21.05.2019 11:00:00 20,9 10,4 23,4 16,7 15,7 41 22 67 36 NW 1011,3 8 60 0,0
21.05.2019 10:00:00 19,6 10,3 20,0 16,5 15,7 38 20 57 31 NW 1011,2 7 60 0,0
21.05.2019 09:00:00 17,3 11,8 16,9 16,6 15,7 32 18 44 24 WNW 1011,3 7 53 0,0
21.05.2019 08:00:00 15,7 11,3 14,9 16,7 15,7 37 20 47 26 WNW 1011,1 7 60 0,0
21.05.2019 07:00:00 14,9 11,1 13,6 16,9 15,7 37 20 48 26 WNW 1010,6 11 27 0,0
21.05.2019 06:00:00 14,4 10,8 14,0 17,1 15,7 37 20 48 26 W 1010,7 24 0 0,0
21.05.2019 05:00:00 15,1 11,5 14,6 17,2 15,7 34 19 50 27 WNW 1010,7 23 0 0,0
21.05.2019 04:00:00 15,3 11,3 14,3 17,4 15,7 36 19 47 26 WNW 1010,6 27 0 0,0
21.05.2019 03:00:00 15,8 10,8 15,2 17,7 15,7 37 20 46 25 WNW 1011,0 33 0 0,0
21.05.2019 02:00:00 16,0 10,7 15,3 17,9 15,7 35 19 47 26 WNW 1011,1 36 0 0,0
21.05.2019 01:00:00 16,4 10,5 15,8 18,1 15,7 34 19 45 25 WNW 1011,3 46 0 0,0
21.05.2019 00:00:00 16,8 10,6 16,1 18,4 15,7 34 18 44 24 WNW 1011,1 49 0 0,0
20.05.2019 23:00:00 17,4 9,8 16,6 18,6 15,7 30 16 38 21 WNW 1011,0 57 0 0,0
20.05.2019 22:00:00 18,6 9,4 17,6 18,9 15,7 29 16 44 24 NW 1010,3 60 0 0,0
20.05.2019 21:00:00 18,9 10,2 18,3 19,0 15,7 27 14 43 23 NW 1009,6 58 34 0,0
20.05.2019 20:00:00 21,2 8,8 21,2 19,0 15,7 31 17 50 27 NW 1009,1 44 47 0,0
20.05.2019 19:00:00 20,1 12,3 21,3 19,0 15,7 21 11 33 18 W 1008,6 42 8 0,0
20.05.2019 18:00:00 20,8 11,1 23,0 18,8 15,7 27 14 50 27 WNW 1008,5 31 42 0,0
20.05.2019 17:00:00 22,9 9,7 23,3 18,5 15,7 32 18 46 25 NNW 1008,1 35 32 0,0
20.05.2019 16:00:00 21,9 9,1 23,2 18,1 15,6 29 16 47 26 NNW 1008,0 29 23 0,0
20.05.2019 15:00:00 22,7 10,8 25,2 17,7 15,6 29 16 49 26 NNW 1008,3 20 45 0,0
20.05.2019 14:00:00 21,4 10,8 22,3 17,3 15,6 30 16 51 27 NW 1008,5 25 13 0,0
20.05.2019 13:00:00 20,4 10,8 22,2 17,0 15,6 29 15 52 28 NW 1008,2 20 14 0,0
20.05.2019 12:00:00 19,3 12,1 18,9 16,7 15,6 32 17 42 23 WNW 1008,2 34 40 0,0
20.05.2019 11:00:00 16,6 11,3 17,4 16,6 15,6 31 17 39 21 WNW 1008,2 43 3 0,0
20.05.2019 10:00:00 15,9 12,1 15,2 16,6 15,7 29 16 38 20 WNW 1008,0 39 0 0,0
20.05.2019 09:00:00 14,8 11,4 14,7 16,6 15,7 31 17 38 20 WNW 1007,7 20 24 0,0
20.05.2019 08:00:00 14,3 11,8 12,8 16,7 15,6 27 14 39 21 WNW 1007,3 34 1 0,0
20.05.2019 07:00:00 13,8 11,5 12,6 16,8 15,6 29 16 38 20 WNW 1006,9 29 0 0,0
20.05.2019 06:00:00 13,6 11,3 12,5 17,0 15,6 27 15 36 19 WNW 1006,4 40 0 0,0
20.05.2019 05:00:00 13,5 11,2 12,7 17,1 15,6 29 15 35 19 WNW 1006,4 35 0 0,0
20.05.2019 04:00:00 13,3 11,4 12,6 17,2 15,6 25 14 32 17 WNW 1006,5 45 0 0,0
20.05.2019 03:00:00 13,5 11,9 12,8 17,3 15,6 19 11 31 17 NW 1006,7 46 0 0,0
20.05.2019 02:00:00 13,5 11,9 12,8 17,5 15,6 27 15 35 19 WNW 1007,0 45 0 0,2
20.05.2019 01:00:00 13,5 12,1 12,6 17,7 15,6 29 16 39 21 W 1007,1 10 0 0,8
20.05.2019 00:00:00 13,4 12,0 12,7 17,8 15,6 32 17 39 21 W 1007,2 7 0 0,4
19.05.2019 23:00:00 13,5 12,2 12,7 18,0 15,6 29 16 37 20 WNW 1007,3 12 0 1,0
19.05.2019 22:00:00 13,5 12,1 12,5 18,2 15,6 27 15 36 19 W 1007,2 6 0 1,2
19.05.2019 21:00:00 13,5 11,5 12,5 18,4 15,6 24 13 37 20 W 1006,9 11 0 0,4
19.05.2019 20:00:00 13,7 11,4 12,6 18,6 15,6 29 16 44 24 W 1006,6 16 0 0,4
19.05.2019 19:00:00 13,9 11,2 12,8 18,7 15,6 32 18 42 23 W 1006,2 35 0 0,2
19.05.2019 18:00:00 14,1 11,3 13,1 18,7 15,6 31 17 40 21 W 1006,3 14 0 0,0
19.05.2019 17:00:00 14,9 10,9 15,0 18,6 15,6 28 15 39 21 WNW 1006,2 39 0 0,0
19.05.2019 16:00:00 16,8 10,6 19,5 18,4 15,6 32 17 47 26 WNW 1006,1 36 4 0,0
19.05.2019 15:00:00 16,8 9,2 17,5 18,2 15,6 29 15 45 25 NW 1006,1 45 0 0,0
19.05.2019 14:00:00 17,1 9,3 20,1 17,9 15,6 29 16 49 26 NW 1006,0 38 0 0,0
19.05.2019 13:00:00 17,0 9,4 19,5 17,7 15,6 31 17 42 23 NW 1005,9 44 7 0,0
19.05.2019 12:00:00 16,0 10,1 16,8 17,5 15,6 21 11 38 20 NNW 1006,1 49 2 0,0
19.05.2019 11:00:00 15,5 9,4 16,6 17,5 15,6 23 12 35 19 NW 1005,9 48 1 0,0
19.05.2019 10:00:00 14,8 10,2 15,6 17,5 15,6 23 12 29 16 WNW 1005,9 38 0 0,0
19.05.2019 09:00:00 14,0 9,6 14,4 17,5 15,6 21 11 28 15 WNW 1005,9 49 0 0,0
19.05.2019 08:00:00 13,6 10,6 13,0 17,7 15,6 20 11 26 14 W 1005,7 45 0 0,0
19.05.2019 07:00:00 12,9 11,3 12,0 17,9 15,6 15 8 20 11 NW 1005,7 32 0 0,0
19.05.2019 06:00:00 12,3 11,0 11,8 18,1 15,6 13 7 18 10 NW 1005,6 24 0 0,0
19.05.2019 05:00:00 12,8 11,2 9,5 18,3 15,6 12 6 17 9 NW 1005,6 31 0 0,0
19.05.2019 04:00:00 11,5 9,4 8,0 18,7 15,6 2 1 8 4 WSW 1006,0 33 0 0,0
19.05.2019 03:00:00 12,6 10,0 7,7 18,9 15,6 5 3 7 4 SSW 1006,2 42 0 0,0
19.05.2019 02:00:00 13,3 9,9 9,4 19,2 15,6 3 1 5 3 SSE 1006,6 58 0 0,0
19.05.2019 01:00:00 14,1 9,9 12,2 19,5 15,6 2 1 15 8 SSE 1006,8 60 0 0,0
19.05.2019 00:00:00 14,9 10,7 13,7 19,7 15,6 10 5 16 9 N 1006,9 60 0 0,0
18.05.2019 23:00:00 15,2 11,2 14,8 20,0 15,6 12 6 22 12 NNW 1007,3 60 0 0,0
18.05.2019 22:00:00 15,5 10,9 14,6 20,2 15,5 16 8 24 13 SW 1007,4 49 0 0,0
18.05.2019 21:00:00 15,5 10,0 15,3 20,5 15,5 14 8 36 20 NNE 1007,0 60 0 0,0
18.05.2019 20:00:00 16,7 9,9 16,9 20,6 15,5 31 17 39 21 WSW 1006,1 48 0 0,0
18.05.2019 19:00:00 18,2 10,3 19,8 20,6 15,5 23 13 33 18 SW 1005,6 46 51 0,0
18.05.2019 18:00:00 19,2 9,1 22,0 20,4 15,5 22 12 35 19 WSW 1005,6 45 57 0,0
18.05.2019 17:00:00 18,9 9,9 22,7 19,9 15,5 27 15 41 22 WSW 1005,3 33 56 0,0
18.05.2019 16:00:00 19,9 10,9 22,0 19,2 15,5 29 16 40 22 WSW 1005,1 41 40 0,0
18.05.2019 15:00:00 20,4 9,0 28,5 18,4 15,5 11 6 17 9 WSW 1005,2 46 60 0,0
18.05.2019 14:00:00 19,5 6,9 25,6 17,5 15,5 11 6 16 9 W 1005,3 50 58 0,0
18.05.2019 13:00:00 18,0 9,3 24,5 16,9 15,5 9 5 16 9 WSW 1005,9 20 55 0,0
18.05.2019 12:00:00 17,1 9,5 19,5 16,6 15,5 10 5 19 10 W 1006,2 42 37 0,0
18.05.2019 11:00:00 15,1 9,9 16,9 16,4 15,5 9 5 14 7 WNW 1006,2 51 0 0,0
18.05.2019 10:00:00 14,3 10,3 16,7 16,3 15,5 8 5 14 8 W 1006,1 20 0 0,0
18.05.2019 09:00:00 14,1 10,5 14,7 16,3 15,5 5 3 8 5 W 1005,8 15 0 0,0
18.05.2019 08:00:00 13,2 10,2 12,5 16,3 15,5 4 2 17 9 SSE 1005,6 15 0 0,0
18.05.2019 07:00:00 12,7 9,9 11,4 16,4 15,5 5 3 11 6 NE 1005,4 15 0 0,0
18.05.2019 06:00:00 12,3 9,8 11,3 16,5 15,5 6 4 11 6 NW 1005,3 22 0 0,0
18.05.2019 05:00:00 12,4 9,9 11,9 16,7 15,5 9 5 18 10 NW 1005,6 26 0 0,0

tt = Température de l'air
td = dewpoint
tt 5cm = Température de l'air 5cm
tt -20cm = Température de l'air -20cm
tt -100cm = Température de l'air -100cm
ff = Vitesse du vent
fx = gusts
dd = Direction du vent
ppp = reduced air pressure
vv = visibility
sd = Ensoleillement
rr = Quantités de précipitations

stations d'obs. à proximité